Time,TemperatureF,DewpointF,PressureIn,WindDirection,WindDirectionDegrees,WindSpeedMPH,WindSpeedGustMPH,Humidity,HourlyPrecipIn,Conditions,Clouds,dailyrainin,SolarRadiationWatts/m^2,SoftwareType,DateUTC
2013-11-07 00:02:00,52.0,50.0,-100.00,SSE,168,5.0,13.0,94,0.07,,,0.17,0.000000,,2013-11-07 08:02:00,
2013-11-07 00:11:00,52.0,50.0,-100.00,SSE,168,5.0,13.0,94,0.07,,,0.17,0.000000,,2013-11-07 08:11:00,
2013-11-07 00:22:00,52.0,50.0,-100.00,SSE,168,5.0,13.0,94,0.07,,,0.17,0.000000,,2013-11-07 08:22:00,
2013-11-07 00:32:00,52.0,50.0,-100.00,SSE,168,5.0,13.0,94,0.07,,,0.17,0.000000,,2013-11-07 08:32:00,
2013-11-07 00:33:00,52.0,50.0,-100.00,South,170,4.0,17.0,94,0.10,,,0.27,0.000000,,2013-11-07 08:33:00,
2013-11-07 00:53:00,52.0,50.0,-100.00,South,170,4.0,17.0,94,0.10,,,0.27,0.000000,,2013-11-07 08:53:00,
2013-11-07 01:02:00,52.0,50.0,-100.00,South,170,4.0,17.0,94,0.10,,,0.27,0.000000,,2013-11-07 09:02:00,
2013-11-07 01:11:00,52.0,50.0,-100.00,South,170,4.0,17.0,94,0.10,,,0.27,0.000000,,2013-11-07 09:11:00,
2013-11-07 01:21:00,52.0,50.0,-100.00,South,170,4.0,17.0,94,0.10,,,0.27,0.000000,,2013-11-07 09:21:00,
2013-11-07 01:53:00,52.0,50.0,-100.00,SSE,165,6.0,14.0,93,0.03,,,0.30,0.000000,,2013-11-07 09:53:00,
2013-11-07 02:03:00,52.0,50.0,-100.00,SSE,165,6.0,14.0,93,0.03,,,0.30,0.000000,,2013-11-07 10:03:00,
2013-11-07 02:13:00,52.0,50.0,-100.00,SSE,165,6.0,14.0,93,0.03,,,0.30,0.000000,,2013-11-07 10:13:00,
2013-11-07 02:22:00,52.0,50.0,-100.00,SSE,165,6.0,14.0,93,0.03,,,0.30,0.000000,,2013-11-07 10:22:00,
2013-11-07 02:32:00,52.0,50.0,-100.00,SSE,165,6.0,14.0,93,0.03,,,0.30,0.000000,,2013-11-07 10:32:00,
2013-11-07 02:53:00,53.0,51.0,-100.00,SSE,167,6.0,15.0,93,0.03,,,0.33,0.000000,,2013-11-07 10:53:00,
2013-11-07 03:02:00,53.0,51.0,-100.00,SSE,167,6.0,15.0,93,0.03,,,0.33,0.000000,,2013-11-07 11:02:00,
2013-11-07 03:11:00,53.0,51.0,-100.00,SSE,167,6.0,15.0,93,0.03,,,0.33,0.000000,,2013-11-07 11:11:00,
2013-11-07 03:22:00,53.0,51.0,-100.00,SSE,167,6.0,15.0,93,0.03,,,0.33,0.000000,,2013-11-07 11:22:00,
2013-11-07 03:52:00,52.0,50.0,-100.00,SSE,163,6.0,17.0,93,0.07,,,0.40,0.000000,,2013-11-07 11:52:00,
2013-11-07 04:02:00,52.0,50.0,-100.00,SSE,163,6.0,17.0,93,0.07,,,0.40,0.000000,,2013-11-07 12:02:00,
2013-11-07 04:12:00,52.0,50.0,-100.00,SSE,163,6.0,17.0,93,0.07,,,0.40,0.000000,,2013-11-07 12:12:00,
2013-11-07 04:22:00,52.0,50.0,-100.00,SSE,163,6.0,17.0,93,0.07,,,0.40,0.000000,,2013-11-07 12:22:00,
2013-11-07 04:32:00,52.0,50.0,-100.00,SSE,163,6.0,17.0,93,0.07,,,0.40,0.000000,,2013-11-07 12:32:00,
2013-11-07 05:52:00,53.0,51.0,-100.00,SSW,210,7.0,22.0,93,-99.99,,,0.95,0.000000,,2013-11-07 13:52:00,
2013-11-07 06:02:00,53.0,51.0,-100.00,SSW,210,7.0,22.0,93,-99.99,,,0.95,0.000000,,2013-11-07 14:02:00,
2013-11-07 06:11:00,53.0,51.0,-100.00,SSW,210,7.0,22.0,93,-99.99,,,0.95,0.000000,,2013-11-07 14:11:00,
2013-11-07 06:22:00,53.0,51.0,-100.00,SSW,210,7.0,22.0,93,-99.99,,,0.95,0.000000,,2013-11-07 14:22:00,
2013-11-07 06:32:00,53.0,51.0,-100.00,SSW,210,7.0,22.0,93,-99.99,,,0.95,0.000000,,2013-11-07 14:32:00,
2013-11-07 06:33:00,49.0,47.0,-100.00,SSW,198,4.0,13.0,94,0.14,,,-99.99,0.000000,,2013-11-07 14:33:00,
2013-11-07 06:52:00,49.0,47.0,-100.00,SSW,198,4.0,13.0,94,0.14,,,-99.99,0.000000,,2013-11-07 14:52:00,
2013-11-07 07:02:00,49.0,47.0,-100.00,SSW,198,4.0,13.0,94,0.14,,,-99.99,0.000000,,2013-11-07 15:02:00,
2013-11-07 07:11:00,49.0,47.0,-100.00,SSW,198,4.0,13.0,94,0.14,,,-99.99,0.000000,,2013-11-07 15:11:00,
2013-11-07 07:22:00,49.0,47.0,-100.00,SSW,198,4.0,13.0,94,0.14,,,-99.99,0.000000,,2013-11-07 15:22:00,
2013-11-07 07:33:00,48.0,46.0,-100.00,South,181,5.0,14.0,92,0.10,,,1.19,1.000000,,2013-11-07 15:33:00,
2013-11-07 07:53:00,48.0,46.0,-100.00,South,181,5.0,14.0,92,0.10,,,1.19,1.000000,,2013-11-07 15:53:00,
2013-11-07 08:04:00,48.0,46.0,-100.00,South,181,5.0,14.0,92,0.10,,,1.19,1.000000,,2013-11-07 16:04:00,
2013-11-07 08:13:00,48.0,46.0,-100.00,South,181,5.0,14.0,92,0.10,,,1.19,1.000000,,2013-11-07 16:13:00,
2013-11-07 08:23:00,48.0,46.0,-100.00,South,181,5.0,14.0,92,0.10,,,1.19,1.000000,,2013-11-07 16:23:00,
2013-11-07 08:52:00,48.0,46.0,-100.00,South,171,4.0,16.0,93,0.05,,,-99.99,12.000000,,2013-11-07 16:52:00,
2013-11-07 09:02:00,48.0,46.0,-100.00,South,171,4.0,16.0,93,0.05,,,-99.99,12.000000,,2013-11-07 17:02:00,
2013-11-07 09:12:00,48.0,46.0,-100.00,South,171,4.0,16.0,93,0.05,,,-99.99,12.000000,,2013-11-07 17:12:00,
2013-11-07 09:22:00,48.0,46.0,-100.00,South,171,4.0,16.0,93,0.05,,,-99.99,12.000000,,2013-11-07 17:22:00,
2013-11-07 09:32:00,48.0,46.0,-100.00,South,171,4.0,16.0,93,0.05,,,-99.99,12.000000,,2013-11-07 17:32:00,
2013-11-07 10:02:00,48.0,45.0,-100.00,South,180,7.0,15.0,91,0.14,,,1.38,23.000000,,2013-11-07 18:02:00,
2013-11-07 10:12:00,48.0,45.0,-100.00,South,180,7.0,15.0,91,0.14,,,1.38,23.000000,,2013-11-07 18:12:00,
2013-11-07 10:23:00,48.0,45.0,-100.00,South,180,7.0,15.0,91,0.14,,,1.38,23.000000,,2013-11-07 18:23:00,
2013-11-07 10:32:00,48.0,45.0,-100.00,South,180,7.0,15.0,91,0.14,,,1.38,23.000000,,2013-11-07 18:32:00,
2013-11-07 10:52:00,48.0,45.0,-100.00,SSE,165,9.0,29.0,90,0.18,,,1.56,20.000000,,2013-11-07 18:52:00,
2013-11-07 11:01:00,48.0,45.0,-100.00,SSE,165,9.0,29.0,90,0.18,,,1.56,20.000000,,2013-11-07 19:01:00,
2013-11-07 11:11:00,48.0,45.0,-100.00,SSE,165,9.0,29.0,90,0.18,,,1.56,20.000000,,2013-11-07 19:11:00,
2013-11-07 11:21:00,48.0,45.0,-100.00,SSE,165,9.0,29.0,90,0.18,,,1.56,20.000000,,2013-11-07 19:21:00,
2013-11-07 11:32:00,48.0,45.0,-100.00,SSE,165,9.0,29.0,90,0.18,,,1.56,20.000000,,2013-11-07 19:32:00,
2013-11-07 11:52:00,47.0,45.0,-100.00,South,174,7.0,24.0,92,0.15,,,1.71,55.000000,,2013-11-07 19:52:00,
2013-11-07 12:01:00,47.0,45.0,-100.00,South,174,7.0,24.0,92,0.15,,,1.71,55.000000,,2013-11-07 20:01:00,
2013-11-07 12:11:00,47.0,45.0,-100.00,South,174,7.0,24.0,92,0.15,,,1.71,55.000000,,2013-11-07 20:11:00,
2013-11-07 12:21:00,47.0,45.0,-100.00,South,174,7.0,24.0,92,0.15,,,1.71,55.000000,,2013-11-07 20:21:00,
2013-11-07 12:32:00,47.0,45.0,-100.00,South,174,7.0,24.0,92,0.15,,,1.71,55.000000,,2013-11-07 20:32:00,
2013-11-07 12:33:00,48.0,46.0,-100.00,SSE,167,7.0,18.0,93,0.22,,,1.93,29.000000,,2013-11-07 20:33:00,
2013-11-07 12:52:00,48.0,46.0,-100.00,SSE,167,7.0,18.0,93,0.22,,,1.93,29.000000,,2013-11-07 20:52:00,
2013-11-07 13:02:00,48.0,46.0,-100.00,SSE,167,7.0,18.0,93,0.22,,,1.93,29.000000,,2013-11-07 21:02:00,
2013-11-07 13:12:00,48.0,46.0,-100.00,SSE,167,7.0,18.0,93,0.22,,,1.93,29.000000,,2013-11-07 21:12:00,
2013-11-07 13:22:00,48.0,46.0,-100.00,SSE,167,7.0,18.0,93,0.22,,,1.93,29.000000,,2013-11-07 21:22:00,
2013-11-07 13:33:00,49.0,48.0,-100.00,South,173,5.0,16.0,95,0.11,,,2.04,43.000000,,2013-11-07 21:33:00,
2013-11-07 13:53:00,49.0,48.0,-100.00,South,173,5.0,16.0,95,0.11,,,2.04,43.000000,,2013-11-07 21:53:00,
2013-11-07 14:03:00,49.0,48.0,-100.00,South,173,5.0,16.0,95,0.11,,,2.04,43.000000,,2013-11-07 22:03:00,
2013-11-07 14:13:00,49.0,48.0,-100.00,South,173,5.0,16.0,95,0.11,,,2.04,43.000000,,2013-11-07 22:13:00,
2013-11-07 14:23:00,49.0,48.0,-100.00,South,173,5.0,16.0,95,0.11,,,2.04,43.000000,,2013-11-07 22:23:00,
2013-11-07 14:33:00,50.0,48.0,-100.00,SE,141,4.0,12.0,94,0.04,,,2.08,63.000000,,2013-11-07 22:33:00,
2013-11-07 14:53:00,50.0,48.0,-100.00,SE,141,4.0,12.0,94,0.04,,,2.08,63.000000,,2013-11-07 22:53:00,
2013-11-07 15:03:00,50.0,48.0,-100.00,SE,141,4.0,12.0,94,0.04,,,2.08,63.000000,,2013-11-07 23:03:00,
2013-11-07 15:12:00,50.0,48.0,-100.00,SE,141,4.0,12.0,94,0.04,,,2.08,63.000000,,2013-11-07 23:12:00,
2013-11-07 15:22:00,50.0,48.0,-100.00,SE,141,4.0,12.0,94,0.04,,,2.08,63.000000,,2013-11-07 23:22:00,
2013-11-07 15:53:00,50.0,48.0,-100.00,NNW,341,1.0,8.0,94,0.01,,,2.09,65.000000,,2013-11-07 23:53:00,
2013-11-07 16:02:00,50.0,48.0,-100.00,NNW,341,1.0,8.0,94,0.01,,,2.09,65.000000,,2013-11-08 00:02:00,
2013-11-07 16:12:00,50.0,48.0,-100.00,NNW,341,1.0,8.0,94,0.01,,,2.09,65.000000,,2013-11-08 00:12:00,
2013-11-07 16:22:00,50.0,48.0,-100.00,NNW,341,1.0,8.0,94,0.01,,,2.09,65.000000,,2013-11-08 00:22:00,
2013-11-07 16:32:00,50.0,48.0,-100.00,NNW,341,1.0,8.0,94,0.01,,,2.09,65.000000,,2013-11-08 00:32:00,
2013-11-07 16:52:00,47.0,46.0,-100.00,NW,320,2.0,8.0,96,0.04,,,2.13,19.000000,,2013-11-08 00:52:00,
2013-11-07 17:02:00,47.0,46.0,-100.00,NW,320,2.0,8.0,96,0.04,,,2.13,19.000000,,2013-11-08 01:02:00,
2013-11-07 17:12:00,47.0,46.0,-100.00,NW,320,2.0,8.0,96,0.04,,,2.13,19.000000,,2013-11-08 01:12:00,
2013-11-07 17:22:00,47.0,46.0,-100.00,NW,320,2.0,8.0,96,0.04,,,2.13,19.000000,,2013-11-08 01:22:00,
2013-11-07 17:32:00,47.0,46.0,-100.00,NW,320,2.0,8.0,96,0.04,,,2.13,19.000000,,2013-11-08 01:32:00,
2013-11-07 17:52:00,47.0,46.0,-100.00,West,268,2.0,14.0,95,0.03,,,2.16,1.000000,,2013-11-08 01:52:00,
2013-11-07 18:02:00,47.0,46.0,-100.00,West,268,2.0,14.0,95,0.03,,,2.16,1.000000,,2013-11-08 02:02:00,
2013-11-07 18:12:00,47.0,46.0,-100.00,West,268,2.0,14.0,95,0.03,,,2.16,1.000000,,2013-11-08 02:12:00,
2013-11-07 18:21:00,47.0,46.0,-100.00,West,268,2.0,14.0,95,0.03,,,2.16,1.000000,,2013-11-08 02:21:00,
2013-11-07 18:32:00,47.0,46.0,-100.00,West,268,2.0,14.0,95,0.03,,,2.16,1.000000,,2013-11-08 02:32:00,
2013-11-07 18:33:00,47.0,46.0,-100.00,WSW,250,3.0,8.0,96,0.00,,,2.16,0.000000,,2013-11-08 02:33:00,
2013-11-07 18:52:00,47.0,46.0,-100.00,WSW,250,3.0,8.0,96,0.00,,,2.16,0.000000,,2013-11-08 02:52:00,
2013-11-07 19:02:00,47.0,46.0,-100.00,WSW,250,3.0,8.0,96,0.00,,,2.16,0.000000,,2013-11-08 03:02:00,
2013-11-07 19:11:00,47.0,46.0,-100.00,WSW,250,3.0,8.0,96,0.00,,,2.16,0.000000,,2013-11-08 03:11:00,
2013-11-07 19:21:00,47.0,46.0,-100.00,WSW,250,3.0,8.0,96,0.00,,,2.16,0.000000,,2013-11-08 03:21:00,
2013-11-07 19:33:00,47.0,45.0,-100.00,WSW,238,2.0,12.0,93,0.00,,,-99.99,0.000000,,2013-11-08 03:33:00,
2013-11-07 19:55:00,47.0,45.0,-100.00,WSW,238,2.0,12.0,93,0.00,,,-99.99,0.000000,,2013-11-08 03:55:00,
2013-11-07 20:05:00,47.0,45.0,-100.00,WSW,238,2.0,12.0,93,0.00,,,-99.99,0.000000,,2013-11-08 04:05:00,
2013-11-07 20:13:00,47.0,45.0,-100.00,WSW,238,2.0,12.0,93,0.00,,,-99.99,0.000000,,2013-11-08 04:13:00,
2013-11-07 20:23:00,47.0,45.0,-100.00,WSW,238,2.0,12.0,93,0.00,,,-99.99,0.000000,,2013-11-08 04:23:00,
2013-11-07 20:33:00,46.0,44.0,-100.00,SW,218,0.0,7.0,93,0.00,,,-99.99,0.000000,,2013-11-08 04:33:00,
2013-11-07 20:54:00,46.0,44.0,-100.00,SW,218,0.0,7.0,93,0.00,,,-99.99,0.000000,,2013-11-08 04:54:00,
2013-11-07 21:03:00,46.0,44.0,-100.00,SW,218,0.0,7.0,93,0.00,,,-99.99,0.000000,,2013-11-08 05:03:00,
2013-11-07 21:13:00,46.0,44.0,-100.00,SW,218,0.0,7.0,93,0.00,,,-99.99,0.000000,,2013-11-08 05:13:00,
2013-11-07 21:23:00,46.0,44.0,-100.00,SW,218,0.0,7.0,93,0.00,,,-99.99,0.000000,,2013-11-08 05:23:00,
2013-11-07 21:54:00,47.0,45.0,-100.00,SW,217,1.0,7.0,92,0.00,,,2.13,0.000000,,2013-11-08 05:54:00,
2013-11-07 22:03:00,47.0,45.0,-100.00,SW,217,1.0,7.0,92,0.00,,,2.13,0.000000,,2013-11-08 06:03:00,
2013-11-07 22:13:00,47.0,45.0,-100.00,SW,217,1.0,7.0,92,0.00,,,2.13,0.000000,,2013-11-08 06:13:00,
2013-11-07 22:23:00,47.0,45.0,-100.00,SW,217,1.0,7.0,92,0.00,,,2.13,0.000000,,2013-11-08 06:23:00,
2013-11-07 22:32:00,47.0,45.0,-100.00,SW,217,1.0,7.0,92,0.00,,,2.13,0.000000,,2013-11-08 06:32:00,
2013-11-07 22:52:00,47.0,45.0,-100.00,SSW,202,0.0,5.0,92,0.00,,,2.06,0.000000,,2013-11-08 06:52:00,
2013-11-07 23:02:00,47.0,45.0,-100.00,SSW,202,0.0,5.0,92,0.00,,,2.06,0.000000,,2013-11-08 07:02:00,
2013-11-07 23:11:00,47.0,45.0,-100.00,SSW,202,0.0,5.0,92,0.00,,,2.06,0.000000,,2013-11-08 07:11:00,
2013-11-07 23:21:00,47.0,45.0,-100.00,SSW,202,0.0,5.0,92,0.00,,,2.06,0.000000,,2013-11-08 07:21:00,
2013-11-07 23:32:00,47.0,45.0,-100.00,SSW,202,0.0,5.0,92,0.00,,,2.06,0.000000,,2013-11-08 07:32:00,
2013-11-07 23:52:00,46.0,44.0,-100.00,West,259,0.0,4.0,92,0.00,,,1.99,0.000000,,2013-11-08 07:52:00,